owner,sensor,date,latitude,longitude,vertical_datum,sea_water_temperature,qcFlag 
ENP,ioos.station.NOAA.NDBC:PKYF1:1,2016-01-01T00:00:00Z,24.9180,-80.7470,1.0,26.69,2 
ENP,ioos.station.NOAA.NDBC:PKYF1:1,2016-01-01T01:00:00Z,24.9180,-80.7470,1.0,26.71,2 
ENP,ioos.station.NOAA.NDBC:PKYF1:1,2016-01-01T02:00:00Z,24.9180,-80.7470,1.0,26.52,2 
ENP,ioos.station.NOAA.NDBC:PKYF1:1,2016-01-01T04:00:00Z,24.9180,-80.7470,1.0,26.17,2 
ENP,ioos.station.NOAA.NDBC:PKYF1:1,2016-01-01T05:00:00Z,24.9180,-80.7470,1.0,26.06,2 
ENP,ioos.station.NOAA.NDBC:PKYF1:1,2016-01-01T06:00:00Z,24.9180,-80.7470,1.0,26.05,2 
ENP,ioos.station.NOAA.NDBC:PKYF1:1,2016-01-01T07:00:00Z,24.9180,-80.7470,1.0,25.91,2 
ENP,ioos.station.NOAA.NDBC:PKYF1:1,2016-01-01T08:00:00Z,24.9180,-80.7470,1.0,25.88,2 
ENP,ioos.station.NOAA.NDBC:PKYF1:1,2016-01-01T09:00:00Z,24.9180,-80.7470,1.0,25.93,2 
ENP,ioos.station.NOAA.NDBC:PKYF1:1,2016-01-01T10:00:00Z,24.9180,-80.7470,1.0,25.83,2 
ENP,ioos.station.NOAA.NDBC:PKYF1:1,2016-01-01T11:00:00Z,24.9180,-80.7470,1.0,25.64,2 
ENP,ioos.station.NOAA.NDBC:PKYF1:1,2016-01-01T12:00:00Z,24.9180,-80.7470,1.0,25.65,2 
ENP,ioos.station.NOAA.NDBC:PKYF1:1,2016-01-01T13:00:00Z,24.9180,-80.7470,1.0,25.67,2 
ENP,ioos.station.NOAA.NDBC:PKYF1:1,2016-01-01T14:00:00Z,24.9180,-80.7470,1.0,25.67,2 
ENP,ioos.station.NOAA.NDBC:PKYF1:1,2016-01-01T15:00:00Z,24.9180,-80.7470,1.0,25.76,2 
ENP,ioos.station.NOAA.NDBC:PKYF1:1,2016-01-02T18:00:00Z,24.9180,-80.7470,1.0,27.01,2 
ENP,ioos.station.NOAA.NDBC:PKYF1:1,2016-01-02T19:00:00Z,24.9180,-80.7470,1.0,27.22,2 
ENP,ioos.station.NOAA.NDBC:PKYF1:1,2016-01-02T20:00:00Z,24.9180,-80.7470,1.0,27.52,2 
ENP,ioos.station.NOAA.NDBC:PKYF1:1,2016-01-02T21:00:00Z,24.9180,-80.7470,1.0,27.68,2 
ENP,ioos.station.NOAA.NDBC:PKYF1:1,2016-01-02T22:00:00Z,24.9180,-80.7470,1.0,27.43,2 
ENP,ioos.station.NOAA.NDBC:PKYF1:1,2016-01-02T23:00:00Z,24.9180,-80.7470,1.0,27.21,2 
ENP,ioos.station.NOAA.NDBC:PKYF1:1,2016-01-03T00:00:00Z,24.9180,-80.7470,1.0,27.01,2 
ENP,ioos.station.NOAA.NDBC:PKYF1:1,2016-01-03T01:00:00Z,24.9180,-80.7470,1.0,26.87,2 
ENP,ioos.station.NOAA.NDBC:PKYF1:1,2016-01-03T02:00:00Z,24.9180,-80.7470,1.0,26.78,2 
ENP,ioos.station.NOAA.NDBC:PKYF1:1,2016-01-03T04:00:00Z,24.9180,-80.7470,1.0,26.72,2 
ENP,ioos.station.NOAA.NDBC:PKYF1:1,2016-01-03T05:00:00Z,24.9180,-80.7470,1.0,26.71,2 
ENP,ioos.station.NOAA.NDBC:PKYF1:1,2016-01-03T06:00:00Z,24.9180,-80.7470,1.0,26.66,2 
ENP,ioos.station.NOAA.NDBC:PKYF1:1,2016-01-03T07:00:00Z,24.9180,-80.7470,1.0,26.5,2 
ENP,ioos.station.NOAA.NDBC:PKYF1:1,2016-01-03T09:00:00Z,24.9180,-80.7470,1.0,26.05,2 
ENP,ioos.station.NOAA.NDBC:PKYF1:1,2016-01-03T10:00:00Z,24.9180,-80.7470,1.0,26.12,2 
ENP,ioos.station.NOAA.NDBC:PKYF1:1,2016-01-03T11:00:00Z,24.9180,-80.7470,1.0,26.16,2 
ENP,ioos.station.NOAA.NDBC:PKYF1:1,2016-01-03T12:00:00Z,24.9180,-80.7470,1.0,26.13,2 
ENP,ioos.station.NOAA.NDBC:PKYF1:1,2016-01-03T13:00:00Z,24.9180,-80.7470,1.0,26.2,2 
ENP,ioos.station.NOAA.NDBC:PKYF1:1,2016-01-03T14:00:00Z,24.9180,-80.7470,1.0,26.24,2 
ENP,ioos.station.NOAA.NDBC:PKYF1:1,2016-01-03T15:00:00Z,24.9180,-80.7470,1.0,26.2,2 
ENP,ioos.station.NOAA.NDBC:PKYF1:1,2016-01-03T16:00:00Z,24.9180,-80.7470,1.0,26.27,2 
ENP,ioos.station.NOAA.NDBC:PKYF1:1,2016-01-03T17:00:00Z,24.9180,-80.7470,1.0,26.36,2 
ENP,ioos.station.NOAA.NDBC:PKYF1:1,2016-01-03T18:00:00Z,24.9180,-80.7470,1.0,26.43,2 
ENP,ioos.station.NOAA.NDBC:PKYF1:1,2016-01-03T19:00:00Z,24.9180,-80.7470,1.0,26.5,2 
ENP,ioos.station.NOAA.NDBC:PKYF1:1,2016-01-03T20:00:00Z,24.9180,-80.7470,1.0,26.34,2 
ENP,ioos.station.NOAA.NDBC:PKYF1:1,2016-01-03T21:00:00Z,24.9180,-80.7470,1.0,26.36,2 
ENP,ioos.station.NOAA.NDBC:PKYF1:1,2016-01-03T22:00:00Z,24.9180,-80.7470,1.0,26.35,2 
ENP,ioos.station.NOAA.NDBC:PKYF1:1,2016-01-03T23:00:00Z,24.9180,-80.7470,1.0,26.17,2 
ENP,ioos.station.NOAA.NDBC:PKYF1:1,2016-01-04T00:00:00Z,24.9180,-80.7470,1.0,26.11,2 
ENP,ioos.station.NOAA.NDBC:PKYF1:1,2016-01-04T01:00:00Z,24.9180,-80.7470,1.0,26.04,2 
ENP,ioos.station.NOAA.NDBC:PKYF1:1,2016-01-04T02:00:00Z,24.9180,-80.7470,1.0,25.94,2 
ENP,ioos.station.NOAA.NDBC:PKYF1:1,2016-01-04T04:00:00Z,24.9180,-80.7470,1.0,25.67,2 
ENP,ioos.station.NOAA.NDBC:PKYF1:1,2016-01-04T05:00:00Z,24.9180,-80.7470,1.0,25.54,2 
ENP,ioos.station.NOAA.NDBC:PKYF1:1,2016-01-04T06:00:00Z,24.9180,-80.7470,1.0,25.5,2 
ENP,ioos.station.NOAA.NDBC:PKYF1:1,2016-01-04T07:00:00Z,24.9180,-80.7470,1.0,25.49,2 
ENP,ioos.station.NOAA.NDBC:PKYF1:1,2016-01-04T08:00:00Z,24.9180,-80.7470,1.0,25.44,2 
ENP,ioos.station.NOAA.NDBC:PKYF1:1,2016-01-04T09:00:00Z,24.9180,-80.7470,1.0,25.33,2 
ENP,ioos.station.NOAA.NDBC:PKYF1:1,2016-01-04T10:00:00Z,24.9180,-80.7470,1.0,25.14,2 
ENP,ioos.station.NOAA.NDBC:PKYF1:1,2016-01-04T11:00:00Z,24.9180,-80.7470,1.0,24.85,2 
ENP,ioos.station.NOAA.NDBC:PKYF1:1,2016-01-04T12:00:00Z,24.9180,-80.7470,1.0,24.78,2 
ENP,ioos.station.NOAA.NDBC:PKYF1:1,2016-01-04T13:00:00Z,24.9180,-80.7470,1.0,24.85,2 
ENP,ioos.station.NOAA.NDBC:PKYF1:1,2016-01-04T14:00:00Z,24.9180,-80.7470,1.0,24.9,2 
ENP,ioos.station.NOAA.NDBC:PKYF1:1,2016-01-04T15:00:00Z,24.9180,-80.7470,1.0,24.84,2 
ENP,ioos.station.NOAA.NDBC:PKYF1:1,2016-01-04T16:00:00Z,24.9180,-80.7470,1.0,24.77,2 
ENP,ioos.station.NOAA.NDBC:PKYF1:1,2016-01-04T17:00:00Z,24.9180,-80.7470,1.0,24.76,2 
ENP,ioos.station.NOAA.NDBC:PKYF1:1,2016-01-04T18:00:00Z,24.9180,-80.7470,1.0,24.74,2 
ENP,ioos.station.NOAA.NDBC:PKYF1:1,2016-01-04T19:00:00Z,24.9180,-80.7470,1.0,24.62,2 
ENP,ioos.station.NOAA.NDBC:PKYF1:1,2016-01-04T20:00:00Z,24.9180,-80.7470,1.0,24.37,2 
ENP,ioos.station.NOAA.NDBC:PKYF1:1,2016-01-04T21:00:00Z,24.9180,-80.7470,1.0,24.11,2 
ENP,ioos.station.NOAA.NDBC:PKYF1:1,2016-01-04T22:00:00Z,24.9180,-80.7470,1.0,23.96,2 
ENP,ioos.station.NOAA.NDBC:PKYF1:1,2016-01-04T23:00:00Z,24.9180,-80.7470,1.0,23.83,2 
ENP,ioos.station.NOAA.NDBC:PKYF1:1,2016-01-05T00:00:00Z,24.9180,-80.7470,1.0,23.64,2 
ENP,ioos.station.NOAA.NDBC:PKYF1:1,2016-01-05T01:00:00Z,24.9180,-80.7470,1.0,23.1,2 
ENP,ioos.station.NOAA.NDBC:PKYF1:1,2016-01-05T02:00:00Z,24.9180,-80.7470,1.0,23.14,2 
ENP,ioos.station.NOAA.NDBC:PKYF1:1,2016-01-05T04:00:00Z,24.9180,-80.7470,1.0,23.16,2 
ENP,ioos.station.NOAA.NDBC:PKYF1:1,2016-01-05T05:00:00Z,24.9180,-80.7470,1.0,23.11,2 
ENP,ioos.station.NOAA.NDBC:PKYF1:1,2016-01-05T07:00:00Z,24.9180,-80.7470,1.0,22.85,2 
ENP,ioos.station.NOAA.NDBC:PKYF1:1,2016-01-05T08:00:00Z,24.9180,-80.7470,1.0,22.73,2 
ENP,ioos.station.NOAA.NDBC:PKYF1:1,2016-01-05T09:00:00Z,24.9180,-80.7470,1.0,22.61,2 
ENP,ioos.station.NOAA.NDBC:PKYF1:1,2016-01-05T10:00:00Z,24.9180,-80.7470,1.0,22.47,2 
ENP,ioos.station.NOAA.NDBC:PKYF1:1,2016-01-05T11:00:00Z,24.9180,-80.7470,1.0,22.31,2 
ENP,ioos.station.NOAA.NDBC:PKYF1:1,2016-01-05T15:00:00Z,24.9180,-80.7470,1.0,21.99,2 
ENP,ioos.station.NOAA.NDBC:PKYF1:1,2016-01-06T06:00:00Z,24.9180,-80.7470,1.0,21.04,2 
ENP,ioos.station.NOAA.NDBC:PKYF1:1,2016-01-06T17:00:00Z,24.9180,-80.7470,1.0,20.76,2 
ENP,ioos.station.NOAA.NDBC:PKYF1:1,2016-01-07T06:00:00Z,24.9180,-80.7470,1.0,20.87,2 
ENP,ioos.station.NOAA.NDBC:PKYF1:1,2016-01-07T14:00:00Z,24.9180,-80.7470,1.0,20.25,2 
ENP,ioos.station.NOAA.NDBC:PKYF1:1,2016-01-07T15:00:00Z,24.9180,-80.7470,1.0,20.31,2 
ENP,ioos.station.NOAA.NDBC:PKYF1:1,2016-01-07T16:00:00Z,24.9180,-80.7470,1.0,20.34,2 
ENP,ioos.station.NOAA.NDBC:PKYF1:1,2016-01-07T17:00:00Z,24.9180,-80.7470,1.0,20.55,2 
ENP,ioos.station.NOAA.NDBC:PKYF1:1,2016-01-07T18:00:00Z,24.9180,-80.7470,1.0,20.84,2 
ENP,ioos.station.NOAA.NDBC:PKYF1:1,2016-01-07T19:00:00Z,24.9180,-80.7470,1.0,21.11,2 
ENP,ioos.station.NOAA.NDBC:PKYF1:1,2016-01-07T20:00:00Z,24.9180,-80.7470,1.0,21.53,2 
ENP,ioos.station.NOAA.NDBC:PKYF1:1,2016-01-07T21:00:00Z,24.9180,-80.7470,1.0,21.75,2 
ENP,ioos.station.NOAA.NDBC:PKYF1:1,2016-01-07T22:00:00Z,24.9180,-80.7470,1.0,21.59,2 
ENP,ioos.station.NOAA.NDBC:PKYF1:1,2016-01-07T23:00:00Z,24.9180,-80.7470,1.0,21.5,2 
ENP,ioos.station.NOAA.NDBC:PKYF1:1,2016-01-08T00:00:00Z,24.9180,-80.7470,1.0,21.54,2 
ENP,ioos.station.NOAA.NDBC:PKYF1:1,2016-01-08T01:00:00Z,24.9180,-80.7470,1.0,21.46,2 
ENP,ioos.station.NOAA.NDBC:PKYF1:1,2016-01-08T02:00:00Z,24.9180,-80.7470,1.0,21.41,2 
ENP,ioos.station.NOAA.NDBC:PKYF1:1,2016-01-08T03:00:00Z,24.9180,-80.7470,1.0,21.37,2 
ENP,ioos.station.NOAA.NDBC:PKYF1:1,2016-01-08T04:00:00Z,24.9180,-80.7470,1.0,21.31,2 
ENP,ioos.station.NOAA.NDBC:PKYF1:1,2016-01-08T05:00:00Z,24.9180,-80.7470,1.0,21.24,2 
ENP,ioos.station.NOAA.NDBC:PKYF1:1,2016-01-08T07:00:00Z,24.9180,-80.7470,1.0,21.13,2 
ENP,ioos.station.NOAA.NDBC:PKYF1:1,2016-01-08T08:00:00Z,24.9180,-80.7470,1.0,21.12,2 
ENP,ioos.station.NOAA.NDBC:PKYF1:1,2016-01-08T09:00:00Z,24.9180,-80.7470,1.0,21.14,2 
ENP,ioos.station.NOAA.NDBC:PKYF1:1,2016-01-08T10:00:00Z,24.9180,-80.7470,1.0,21.2,2 
ENP,ioos.station.NOAA.NDBC:PKYF1:1,2016-01-08T11:00:00Z,24.9180,-80.7470,1.0,21.23,2 
ENP,ioos.station.NOAA.NDBC:PKYF1:1,2016-01-08T12:00:00Z,24.9180,-80.7470,1.0,21.24,2 
ENP,ioos.station.NOAA.NDBC:PKYF1:1,2016-01-08T13:00:00Z,24.9180,-80.7470,1.0,21.18,2 
ENP,ioos.station.NOAA.NDBC:PKYF1:1,2016-01-08T14:00:00Z,24.9180,-80.7470,1.0,21.2,2 
ENP,ioos.station.NOAA.NDBC:PKYF1:1,2016-01-08T15:00:00Z,24.9180,-80.7470,1.0,21.25,2 
ENP,ioos.station.NOAA.NDBC:PKYF1:1,2016-01-08T16:00:00Z,24.9180,-80.7470,1.0,21.36,2 
ENP,ioos.station.NOAA.NDBC:PKYF1:1,2016-01-08T17:00:00Z,24.9180,-80.7470,1.0,21.45,2 
ENP,ioos.station.NOAA.NDBC:PKYF1:1,2016-01-08T18:00:00Z,24.9180,-80.7470,1.0,21.52,2 
ENP,ioos.station.NOAA.NDBC:PKYF1:1,2016-01-08T19:00:00Z,24.9180,-80.7470,1.0,21.68,2 
ENP,ioos.station.NOAA.NDBC:PKYF1:1,2016-01-08T20:00:00Z,24.9180,-80.7470,1.0,21.95,2 
ENP,ioos.station.NOAA.NDBC:PKYF1:1,2016-01-08T21:00:00Z,24.9180,-80.7470,1.0,22.08,2 
ENP,ioos.station.NOAA.NDBC:PKYF1:1,2016-01-08T22:00:00Z,24.9180,-80.7470,1.0,22.04,2 
ENP,ioos.station.NOAA.NDBC:PKYF1:1,2016-01-08T23:00:00Z,24.9180,-80.7470,1.0,21.76,2 
ENP,ioos.station.NOAA.NDBC:PKYF1:1,2016-01-09T00:00:00Z,24.9180,-80.7470,1.0,21.66,2 
ENP,ioos.station.NOAA.NDBC:PKYF1:1,2016-01-09T01:00:00Z,24.9180,-80.7470,1.0,21.67,2 
ENP,ioos.station.NOAA.NDBC:PKYF1:1,2016-01-09T02:00:00Z,24.9180,-80.7470,1.0,21.68,2 
ENP,ioos.station.NOAA.NDBC:PKYF1:1,2016-01-09T03:00:00Z,24.9180,-80.7470,1.0,21.7,2 
ENP,ioos.station.NOAA.NDBC:PKYF1:1,2016-01-09T04:00:00Z,24.9180,-80.7470,1.0,21.7,2 
ENP,ioos.station.NOAA.NDBC:PKYF1:1,2016-01-09T05:00:00Z,24.9180,-80.7470,1.0,21.69,2 
ENP,ioos.station.NOAA.NDBC:PKYF1:1,2016-01-09T07:00:00Z,24.9180,-80.7470,1.0,21.58,2 
ENP,ioos.station.NOAA.NDBC:PKYF1:1,2016-01-09T08:00:00Z,24.9180,-80.7470,1.0,21.44,2 
ENP,ioos.station.NOAA.NDBC:PKYF1:1,2016-01-09T09:00:00Z,24.9180,-80.7470,1.0,21.48,2 
ENP,ioos.station.NOAA.NDBC:PKYF1:1,2016-01-09T10:00:00Z,24.9180,-80.7470,1.0,21.52,2 
ENP,ioos.station.NOAA.NDBC:PKYF1:1,2016-01-09T11:00:00Z,24.9180,-80.7470,1.0,21.51,2 
ENP,ioos.station.NOAA.NDBC:PKYF1:1,2016-01-09T12:00:00Z,24.9180,-80.7470,1.0,21.5,2 
ENP,ioos.station.NOAA.NDBC:PKYF1:1,2016-01-09T13:00:00Z,24.9180,-80.7470,1.0,21.53,2 
ENP,ioos.station.NOAA.NDBC:PKYF1:1,2016-01-09T14:00:00Z,24.9180,-80.7470,1.0,21.53,2 
ENP,ioos.station.NOAA.NDBC:PKYF1:1,2016-01-09T15:00:00Z,24.9180,-80.7470,1.0,21.68,2 
ENP,ioos.station.NOAA.NDBC:PKYF1:1,2016-01-09T16:00:00Z,24.9180,-80.7470,1.0,21.91,2 
ENP,ioos.station.NOAA.NDBC:PKYF1:1,2016-01-09T17:00:00Z,24.9180,-80.7470,1.0,22.08,2 
ENP,ioos.station.NOAA.NDBC:PKYF1:1,2016-01-09T18:00:00Z,24.9180,-80.7470,1.0,22.4,2 
ENP,ioos.station.NOAA.NDBC:PKYF1:1,2016-01-09T19:00:00Z,24.9180,-80.7470,1.0,23.03,2 
ENP,ioos.station.NOAA.NDBC:PKYF1:1,2016-01-09T20:00:00Z,24.9180,-80.7470,1.0,22.76,2 
ENP,ioos.station.NOAA.NDBC:PKYF1:1,2016-01-09T21:00:00Z,24.9180,-80.7470,1.0,22.81,2 
ENP,ioos.station.NOAA.NDBC:PKYF1:1,2016-01-09T22:00:00Z,24.9180,-80.7470,1.0,22.77,2 
ENP,ioos.station.NOAA.NDBC:PKYF1:1,2016-01-09T23:00:00Z,24.9180,-80.7470,1.0,23.4,2 
ENP,ioos.station.NOAA.NDBC:PKYF1:1,2016-01-10T00:00:00Z,24.9180,-80.7470,1.0,23.37,2 
ENP,ioos.station.NOAA.NDBC:PKYF1:1,2016-01-10T01:00:00Z,24.9180,-80.7470,1.0,22.88,2 
ENP,ioos.station.NOAA.NDBC:PKYF1:1,2016-01-10T02:00:00Z,24.9180,-80.7470,1.0,22.89,2 
ENP,ioos.station.NOAA.NDBC:PKYF1:1,2016-01-10T03:00:00Z,24.9180,-80.7470,1.0,22.89,2 
ENP,ioos.station.NOAA.NDBC:PKYF1:1,2016-01-10T04:00:00Z,24.9180,-80.7470,1.0,22.62,2 
ENP,ioos.station.NOAA.NDBC:PKYF1:1,2016-01-10T05:00:00Z,24.9180,-80.7470,1.0,22.61,2 
ENP,ioos.station.NOAA.NDBC:PKYF1:1,2016-01-10T07:00:00Z,24.9180,-80.7470,1.0,22.54,2 
ENP,ioos.station.NOAA.NDBC:PKYF1:1,2016-01-10T08:00:00Z,24.9180,-80.7470,1.0,22.51,2 
ENP,ioos.station.NOAA.NDBC:PKYF1:1,2016-01-10T09:00:00Z,24.9180,-80.7470,1.0,22.65,2 
ENP,ioos.station.NOAA.NDBC:PKYF1:1,2016-01-10T10:00:00Z,24.9180,-80.7470,1.0,22.92,2 
ENP,ioos.station.NOAA.NDBC:PKYF1:1,2016-01-10T12:00:00Z,24.9180,-80.7470,1.0,23.0,2 
ENP,ioos.station.NOAA.NDBC:PKYF1:1,2016-01-10T13:00:00Z,24.9180,-80.7470,1.0,22.87,2 
ENP,ioos.station.NOAA.NDBC:PKYF1:1,2016-01-10T14:00:00Z,24.9180,-80.7470,1.0,22.83,2 
ENP,ioos.station.NOAA.NDBC:PKYF1:1,2016-01-10T15:00:00Z,24.9180,-80.7470,1.0,22.96,2 
ENP,ioos.station.NOAA.NDBC:PKYF1:1,2016-01-10T16:00:00Z,24.9180,-80.7470,1.0,23.25,2 
ENP,ioos.station.NOAA.NDBC:PKYF1:1,2016-01-10T18:00:00Z,24.9180,-80.7470,1.0,23.74,2 
ENP,ioos.station.NOAA.NDBC:PKYF1:1,2016-01-10T19:00:00Z,24.9180,-80.7470,1.0,23.72,2 
ENP,ioos.station.NOAA.NDBC:PKYF1:1,2016-01-10T20:00:00Z,24.9180,-80.7470,1.0,23.72,2 
ENP,ioos.station.NOAA.NDBC:PKYF1:1,2016-01-10T21:00:00Z,24.9180,-80.7470,1.0,23.68,2 
ENP,ioos.station.NOAA.NDBC:PKYF1:1,2016-01-10T22:00:00Z,24.9180,-80.7470,1.0,23.59,2 
ENP,ioos.station.NOAA.NDBC:PKYF1:1,2016-01-10T23:00:00Z,24.9180,-80.7470,1.0,23.53,2 
ENP,ioos.station.NOAA.NDBC:PKYF1:1,2016-01-11T00:00:00Z,24.9180,-80.7470,1.0,23.44,2 
ENP,ioos.station.NOAA.NDBC:PKYF1:1,2016-01-11T01:00:00Z,24.9180,-80.7470,1.0,23.29,2 
ENP,ioos.station.NOAA.NDBC:PKYF1:1,2016-01-11T02:00:00Z,24.9180,-80.7470,1.0,23.33,2 
ENP,ioos.station.NOAA.NDBC:PKYF1:1,2016-01-11T03:00:00Z,24.9180,-80.7470,1.0,23.47,2 
ENP,ioos.station.NOAA.NDBC:PKYF1:1,2016-01-11T04:00:00Z,24.9180,-80.7470,1.0,23.5,2 
ENP,ioos.station.NOAA.NDBC:PKYF1:1,2016-01-11T05:00:00Z,24.9180,-80.7470,1.0,23.4,2 
ENP,ioos.station.NOAA.NDBC:PKYF1:1,2016-01-11T06:00:00Z,24.9180,-80.7470,1.0,23.35,2 
ENP,ioos.station.NOAA.NDBC:PKYF1:1,2016-01-11T07:00:00Z,24.9180,-80.7470,1.0,22.9,2 
ENP,ioos.station.NOAA.NDBC:PKYF1:1,2016-01-11T08:00:00Z,24.9180,-80.7470,1.0,22.78,2 
ENP,ioos.station.NOAA.NDBC:PKYF1:1,2016-01-11T09:00:00Z,24.9180,-80.7470,1.0,22.65,2 
ENP,ioos.station.NOAA.NDBC:PKYF1:1,2016-01-11T10:00:00Z,24.9180,-80.7470,1.0,22.55,2 
ENP,ioos.station.NOAA.NDBC:PKYF1:1,2016-01-11T11:00:00Z,24.9180,-80.7470,1.0,22.5,2 
ENP,ioos.station.NOAA.NDBC:PKYF1:1,2016-01-11T12:00:00Z,24.9180,-80.7470,1.0,22.44,2 
ENP,ioos.station.NOAA.NDBC:PKYF1:1,2016-01-11T13:00:00Z,24.9180,-80.7470,1.0,22.4,2 
ENP,ioos.station.NOAA.NDBC:PKYF1:1,2016-01-11T14:00:00Z,24.9180,-80.7470,1.0,22.27,2 
ENP,ioos.station.NOAA.NDBC:PKYF1:1,2016-01-11T15:00:00Z,24.9180,-80.7470,1.0,22.18,2 
ENP,ioos.station.NOAA.NDBC:PKYF1:1,2016-01-11T16:00:00Z,24.9180,-80.7470,1.0,22.16,2 
ENP,ioos.station.NOAA.NDBC:PKYF1:1,2016-01-11T17:00:00Z,24.9180,-80.7470,1.0,22.28,2 
ENP,ioos.station.NOAA.NDBC:PKYF1:1,2016-01-11T18:00:00Z,24.9180,-80.7470,1.0,22.41,2 
ENP,ioos.station.NOAA.NDBC:PKYF1:1,2016-01-11T19:00:00Z,24.9180,-80.7470,1.0,22.42,2 
ENP,ioos.station.NOAA.NDBC:PKYF1:1,2016-01-11T20:00:00Z,24.9180,-80.7470,1.0,22.46,2 
ENP,ioos.station.NOAA.NDBC:PKYF1:1,2016-01-11T21:00:00Z,24.9180,-80.7470,1.0,22.49,2 
ENP,ioos.station.NOAA.NDBC:PKYF1:1,2016-01-11T22:00:00Z,24.9180,-80.7470,1.0,22.44,2 
ENP,ioos.station.NOAA.NDBC:PKYF1:1,2016-01-11T23:00:00Z,24.9180,-80.7470,1.0,22.35,2 
ENP,ioos.station.NOAA.NDBC:PKYF1:1,2016-01-12T00:00:00Z,24.9180,-80.7470,1.0,22.13,2 
ENP,ioos.station.NOAA.NDBC:PKYF1:1,2016-01-12T01:00:00Z,24.9180,-80.7470,1.0,22.06,2 
ENP,ioos.station.NOAA.NDBC:PKYF1:1,2016-01-12T02:00:00Z,24.9180,-80.7470,1.0,22.05,2 
ENP,ioos.station.NOAA.NDBC:PKYF1:1,2016-01-12T03:00:00Z,24.9180,-80.7470,1.0,22.0,2 
ENP,ioos.station.NOAA.NDBC:PKYF1:1,2016-01-12T04:00:00Z,24.9180,-80.7470,1.0,21.91,2 
ENP,ioos.station.NOAA.NDBC:PKYF1:1,2016-01-12T05:00:00Z,24.9180,-80.7470,1.0,21.78,2 
ENP,ioos.station.NOAA.NDBC:PKYF1:1,2016-01-12T07:00:00Z,24.9180,-80.7470,1.0,21.52,2 
ENP,ioos.station.NOAA.NDBC:PKYF1:1,2016-01-12T08:00:00Z,24.9180,-80.7470,1.0,21.37,2 
ENP,ioos.station.NOAA.NDBC:PKYF1:1,2016-01-12T09:00:00Z,24.9180,-80.7470,1.0,21.33,2 
ENP,ioos.station.NOAA.NDBC:PKYF1:1,2016-01-12T10:00:00Z,24.9180,-80.7470,1.0,21.36,2 
ENP,ioos.station.NOAA.NDBC:PKYF1:1,2016-01-12T12:00:00Z,24.9180,-80.7470,1.0,21.22,2 
ENP,ioos.station.NOAA.NDBC:PKYF1:1,2016-01-12T13:00:00Z,24.9180,-80.7470,1.0,21.14,2 
ENP,ioos.station.NOAA.NDBC:PKYF1:1,2016-01-12T14:00:00Z,24.9180,-80.7470,1.0,21.06,2 
ENP,ioos.station.NOAA.NDBC:PKYF1:1,2016-01-12T16:00:00Z,24.9180,-80.7470,1.0,20.85,2 
ENP,ioos.station.NOAA.NDBC:PKYF1:1,2016-01-12T18:00:00Z,24.9180,-80.7470,1.0,20.81,2 
ENP,ioos.station.NOAA.NDBC:PKYF1:1,2016-01-12T19:00:00Z,24.9180,-80.7470,1.0,20.84,2 
ENP,ioos.station.NOAA.NDBC:PKYF1:1,2016-01-12T23:00:00Z,24.9180,-80.7470,1.0,20.92,2 
ENP,ioos.station.NOAA.NDBC:PKYF1:1,2016-01-13T00:00:00Z,24.9180,-80.7470,1.0,20.84,2 
ENP,ioos.station.NOAA.NDBC:PKYF1:1,2016-01-13T01:00:00Z,24.9180,-80.7470,1.0,20.7,2 
ENP,ioos.station.NOAA.NDBC:PKYF1:1,2016-01-13T02:00:00Z,24.9180,-80.7470,1.0,20.44,2 
ENP,ioos.station.NOAA.NDBC:PKYF1:1,2016-01-13T03:00:00Z,24.9180,-80.7470,1.0,20.3,2 
ENP,ioos.station.NOAA.NDBC:PKYF1:1,2016-01-13T04:00:00Z,24.9180,-80.7470,1.0,20.28,2 
ENP,ioos.station.NOAA.NDBC:PKYF1:1,2016-01-13T05:00:00Z,24.9180,-80.7470,1.0,20.26,2 
ENP,ioos.station.NOAA.NDBC:PKYF1:1,2016-01-13T07:00:00Z,24.9180,-80.7470,1.0,19.84,2 
ENP,ioos.station.NOAA.NDBC:PKYF1:1,2016-01-13T08:00:00Z,24.9180,-80.7470,1.0,19.89,2 
ENP,ioos.station.NOAA.NDBC:PKYF1:1,2016-01-13T09:00:00Z,24.9180,-80.7470,1.0,19.78,2 
ENP,ioos.station.NOAA.NDBC:PKYF1:1,2016-01-13T10:00:00Z,24.9180,-80.7470,1.0,19.83,2 
ENP,ioos.station.NOAA.NDBC:PKYF1:1,2016-01-13T11:00:00Z,24.9180,-80.7470,1.0,19.81,2 
ENP,ioos.station.NOAA.NDBC:PKYF1:1,2016-01-13T12:00:00Z,24.9180,-80.7470,1.0,19.74,2 
ENP,ioos.station.NOAA.NDBC:PKYF1:1,2016-01-13T13:00:00Z,24.9180,-80.7470,1.0,19.68,2 
ENP,ioos.station.NOAA.NDBC:PKYF1:1,2016-01-13T14:00:00Z,24.9180,-80.7470,1.0,19.6,2 
ENP,ioos.station.NOAA.NDBC:PKYF1:1,2016-01-13T15:00:00Z,24.9180,-80.7470,1.0,19.5,2 
ENP,ioos.station.NOAA.NDBC:PKYF1:1,2016-01-13T16:00:00Z,24.9180,-80.7470,1.0,19.39,2 
ENP,ioos.station.NOAA.NDBC:PKYF1:1,2016-01-13T18:00:00Z,24.9180,-80.7470,1.0,19.32,2 
ENP,ioos.station.NOAA.NDBC:PKYF1:1,2016-01-13T19:00:00Z,24.9180,-80.7470,1.0,19.32,2 
ENP,ioos.station.NOAA.NDBC:PKYF1:1,2016-01-13T20:00:00Z,24.9180,-80.7470,1.0,19.36,2 
ENP,ioos.station.NOAA.NDBC:PKYF1:1,2016-01-13T21:00:00Z,24.9180,-80.7470,1.0,19.47,2 
ENP,ioos.station.NOAA.NDBC:PKYF1:1,2016-01-13T22:00:00Z,24.9180,-80.7470,1.0,19.47,2 
ENP,ioos.station.NOAA.NDBC:PKYF1:1,2016-01-13T23:00:00Z,24.9180,-80.7470,1.0,19.42,2 
ENP,ioos.station.NOAA.NDBC:PKYF1:1,2016-01-14T00:00:00Z,24.9180,-80.7470,1.0,19.36,2 
ENP,ioos.station.NOAA.NDBC:PKYF1:1,2016-01-14T01:00:00Z,24.9180,-80.7470,1.0,19.31,2 
ENP,ioos.station.NOAA.NDBC:PKYF1:1,2016-01-14T02:00:00Z,24.9180,-80.7470,1.0,19.2,2 
ENP,ioos.station.NOAA.NDBC:PKYF1:1,2016-01-14T03:00:00Z,24.9180,-80.7470,1.0,19.16,2 
ENP,ioos.station.NOAA.NDBC:PKYF1:1,2016-01-14T04:00:00Z,24.9180,-80.7470,1.0,19.22,2 
ENP,ioos.station.NOAA.NDBC:PKYF1:1,2016-01-14T05:00:00Z,24.9180,-80.7470,1.0,19.19,2 
ENP,ioos.station.NOAA.NDBC:PKYF1:1,2016-01-14T06:00:00Z,24.9180,-80.7470,1.0,19.1,2 
ENP,ioos.station.NOAA.NDBC:PKYF1:1,2016-01-14T07:00:00Z,24.9180,-80.7470,1.0,19.04,2 
ENP,ioos.station.NOAA.NDBC:PKYF1:1,2016-01-14T08:00:00Z,24.9180,-80.7470,1.0,18.99,2 
ENP,ioos.station.NOAA.NDBC:PKYF1:1,2016-01-14T09:00:00Z,24.9180,-80.7470,1.0,18.95,2 
ENP,ioos.station.NOAA.NDBC:PKYF1:1,2016-01-14T10:00:00Z,24.9180,-80.7470,1.0,18.93,2 
ENP,ioos.station.NOAA.NDBC:PKYF1:1,2016-01-14T12:00:00Z,24.9180,-80.7470,1.0,18.94,2 
ENP,ioos.station.NOAA.NDBC:PKYF1:1,2016-01-14T13:00:00Z,24.9180,-80.7470,1.0,18.93,2 
ENP,ioos.station.NOAA.NDBC:PKYF1:1,2016-01-14T14:00:00Z,24.9180,-80.7470,1.0,18.92,2 
ENP,ioos.station.NOAA.NDBC:PKYF1:1,2016-01-14T15:00:00Z,24.9180,-80.7470,1.0,18.89,2 
ENP,ioos.station.NOAA.NDBC:PKYF1:1,2016-01-14T16:00:00Z,24.9180,-80.7470,1.0,18.92,2 
ENP,ioos.station.NOAA.NDBC:PKYF1:1,2016-01-14T17:00:00Z,24.9180,-80.7470,1.0,18.93,2 
ENP,ioos.station.NOAA.NDBC:PKYF1:1,2016-01-14T18:00:00Z,24.9180,-80.7470,1.0,18.99,2 
ENP,ioos.station.NOAA.NDBC:PKYF1:1,2016-01-14T19:00:00Z,24.9180,-80.7470,1.0,19.03,2 
ENP,ioos.station.NOAA.NDBC:PKYF1:1,2016-01-14T20:00:00Z,24.9180,-80.7470,1.0,19.1,2 
ENP,ioos.station.NOAA.NDBC:PKYF1:1,2016-01-14T21:00:00Z,24.9180,-80.7470,1.0,19.18,2 
ENP,ioos.station.NOAA.NDBC:PKYF1:1,2016-01-14T22:00:00Z,24.9180,-80.7470,1.0,19.3,2 
ENP,ioos.station.NOAA.NDBC:PKYF1:1,2016-01-14T23:00:00Z,24.9180,-80.7470,1.0,19.28,2 
ENP,ioos.station.NOAA.NDBC:PKYF1:1,2016-01-15T00:00:00Z,24.9180,-80.7470,1.0,19.25,2 
ENP,ioos.station.NOAA.NDBC:PKYF1:1,2016-01-15T01:00:00Z,24.9180,-80.7470,1.0,19.23,2 
ENP,ioos.station.NOAA.NDBC:PKYF1:1,2016-01-15T02:00:00Z,24.9180,-80.7470,1.0,19.2,2 
ENP,ioos.station.NOAA.NDBC:PKYF1:1,2016-01-15T03:00:00Z,24.9180,-80.7470,1.0,19.2,2 
ENP,ioos.station.NOAA.NDBC:PKYF1:1,2016-01-15T04:00:00Z,24.9180,-80.7470,1.0,19.2,2 
ENP,ioos.station.NOAA.NDBC:PKYF1:1,2016-01-15T05:00:00Z,24.9180,-80.7470,1.0,19.24,2 
ENP,ioos.station.NOAA.NDBC:PKYF1:1,2016-01-15T07:00:00Z,24.9180,-80.7470,1.0,19.3,2 
ENP,ioos.station.NOAA.NDBC:PKYF1:1,2016-01-15T08:00:00Z,24.9180,-80.7470,1.0,19.26,2 
ENP,ioos.station.NOAA.NDBC:PKYF1:1,2016-01-15T09:00:00Z,24.9180,-80.7470,1.0,19.26,2 
ENP,ioos.station.NOAA.NDBC:PKYF1:1,2016-01-15T10:00:00Z,24.9180,-80.7470,1.0,19.29,2 
ENP,ioos.station.NOAA.NDBC:PKYF1:1,2016-01-15T12:00:00Z,24.9180,-80.7470,1.0,19.42,2 
ENP,ioos.station.NOAA.NDBC:PKYF1:1,2016-01-15T13:00:00Z,24.9180,-80.7470,1.0,19.52,2 
ENP,ioos.station.NOAA.NDBC:PKYF1:1,2016-01-15T14:00:00Z,24.9180,-80.7470,1.0,19.64,2 
ENP,ioos.station.NOAA.NDBC:PKYF1:1,2016-01-15T16:00:00Z,24.9180,-80.7470,1.0,19.61,2 
ENP,ioos.station.NOAA.NDBC:PKYF1:1,2016-01-15T17:00:00Z,24.9180,-80.7470,1.0,19.62,2 
ENP,ioos.station.NOAA.NDBC:PKYF1:1,2016-01-15T18:00:00Z,24.9180,-80.7470,1.0,19.76,2 
ENP,ioos.station.NOAA.NDBC:PKYF1:1,2016-01-15T19:00:00Z,24.9180,-80.7470,1.0,19.9,2 
ENP,ioos.station.NOAA.NDBC:PKYF1:1,2016-01-15T20:00:00Z,24.9180,-80.7470,1.0,20.02,2 
ENP,ioos.station.NOAA.NDBC:PKYF1:1,2016-01-16T01:00:00Z,24.9180,-80.7470,1.0,20.11,2 
ENP,ioos.station.NOAA.NDBC:PKYF1:1,2016-01-16T02:00:00Z,24.9180,-80.7470,1.0,20.1,2 
ENP,ioos.station.NOAA.NDBC:PKYF1:1,2016-01-16T05:00:00Z,24.9180,-80.7470,1.0,20.03,2 
ENP,ioos.station.NOAA.NDBC:PKYF1:1,2016-01-16T07:00:00Z,24.9180,-80.7470,1.0,19.97,2 
ENP,ioos.station.NOAA.NDBC:PKYF1:1,2016-01-16T08:00:00Z,24.9180,-80.7470,1.0,19.94,2 
ENP,ioos.station.NOAA.NDBC:PKYF1:1,2016-01-16T09:00:00Z,24.9180,-80.7470,1.0,19.91,2 
ENP,ioos.station.NOAA.NDBC:PKYF1:1,2016-01-16T10:00:00Z,24.9180,-80.7470,1.0,19.85,2 
ENP,ioos.station.NOAA.NDBC:PKYF1:1,2016-01-16T12:00:00Z,24.9180,-80.7470,1.0,19.74,2 
ENP,ioos.station.NOAA.NDBC:PKYF1:1,2016-01-16T15:00:00Z,24.9180,-80.7470,1.0,19.91,2 
ENP,ioos.station.NOAA.NDBC:PKYF1:1,2016-01-16T17:00:00Z,24.9180,-80.7470,1.0,20.59,2 
ENP,ioos.station.NOAA.NDBC:PKYF1:1,2016-01-16T18:00:00Z,24.9180,-80.7470,1.0,20.74,2 
ENP,ioos.station.NOAA.NDBC:PKYF1:1,2016-01-16T23:00:00Z,24.9180,-80.7470,1.0,21.16,2 
ENP,ioos.station.NOAA.NDBC:PKYF1:1,2016-01-17T00:00:00Z,24.9180,-80.7470,1.0,20.87,2 
ENP,ioos.station.NOAA.NDBC:PKYF1:1,2016-01-17T01:00:00Z,24.9180,-80.7470,1.0,20.79,2 
ENP,ioos.station.NOAA.NDBC:PKYF1:1,2016-01-17T02:00:00Z,24.9180,-80.7470,1.0,20.8,2 
ENP,ioos.station.NOAA.NDBC:PKYF1:1,2016-01-17T04:00:00Z,24.9180,-80.7470,1.0,20.82,2 
ENP,ioos.station.NOAA.NDBC:PKYF1:1,2016-01-17T05:00:00Z,24.9180,-80.7470,1.0,20.84,2 